Theta_e
287 287 287 286 287 288 288 289 290 290 293 295 296 296 292 294 293 293 293 294 295 298 300 303 302 304 303 302 301 298 297 296 293 293 294 292 290 288 288 288 288 288 289
285 286 285 285 285 285 286 287 289 289 291 291 291 291 291 291 291 291 289 290 291 292 292 294 296 297 298 296 296 295 294 294 292 292 289 288 289 287 287 286 287 287 287
284 283 284 283 283 283 283 286 287 288 289 290 291 290 289 288 287 286 285 285 287 288 289 290 290 291 292 292 293 294 293 293 292 291 291 289 287 285 287 286 286 286 286
284 283 283 282 282 282 283 283 284 286 287 287 287 285 284 282 283 283 284 284 285 285 285 286 286 287 288 288 289 292 291 290 289 292 291 289 288 286 284 286 287 285 286
283 283 282 283 282 282 281 281 282 283 283 284 284 283 282 282 282 281 282 282 283 283 284 284 284 284 284 285 285 287 288 289 288 288 289 289 288 288 286 284 284 287 287
283 282 283 282 281 281 281 281 281 281 282 282 281 281 280 280 280 280 280 280 281 281 282 282 282 282 282 282 283 283 284 284 285 286 287 287 288 287 287 286 287 287 287
282 282 281 280 280 280 281 281 281 280 280 280 280 280 279 279 279 279 279 279 279 279 279 280 280 280 280 281 281 280 280 281 281 282 283 285 286 287 286 285 285 285 285
283 282 282 281 280 281 280 281 280 280 281 280 280 280 280 280 279 279 278 278 278 278 278 278 278 278 279 279 278 278 278 278 279 278 279 282 283 284 285 284 282 282 284
283 283 282 281 280 280 281 281 281 281 281 280 280 280 279 279 278 278 278 278 278 280 278 278 277 277 278 278 277 277 277 277 277 277 278 279 280 282 282 283 283 282 280
283 283 283 282 282 282 282 282 282 281 280 280 280 279 279 279 278 278 278 277 278 278 278 278 277 277 277 277 276 276 277 276 276 277 277 277 278 279 279 280 281 281 281
284 284 283 283 282 281 280 279 279 280 279 279 278 278 278 277 277 277 277 277 277 277 277 277 277 277 276 276 275 275 276 275 275 276 276 277 277 278 278 279 279 279 279
284 284 284 283 282 281 280 280 279 279 279 278 278 278 277 277 277 276 277 277 277 277 277 277 277 276 276 276 275 275 275 274 275 275 276 276 278 276 277 277 277 278 279
283 283 282 282 281 280 280 279 279 279 279 278 277 277 277 277 276 277 277 277 276 276 276 275 274 274 274 274 274 275 275 275 275 276 276 276 276 276 276 276 276 277 279
284 282 280 280 280 280 279 278 278 278 279 278 277 277 277 276 276 276 276 275 275 274 273 273 273 273 273 273 274 275 274 274 274 275 275 275 275 275 275 276 276 277 277
282 281 281 280 280 278 278 277 277 278 278 277 277 277 277 276 275 274 274 273 273 273 272 272 271 272 272 273 274 274 273 273 273 273 274 274 274 276 276 275 275 276 275
283 283 280 280 279 278 278 278 277 277 277 277 276 276 275 275 273 273 272 272 271 271 270 270 269 269 271 274 275 275 273 272 271 271 271 272 272 273 275 276 277 276 274
282 282 280 279 279 278 279 277 278 277 276 275 273 272 272 272 271 270 270 270 269 269 268 268 268 267 268 273 274 274 272 271 270 270 270 270 271 271 271 272 274 274 275
278 279 280 278 278 278 278 277 278 276 275 273 270 270 270 269 269 268 267 267 267 266 266 266 266 266 267 272 273 273 271 269 269 269 269 269 269 270 270 270 271 271 272
278 278 278 277 276 277 277 276 275 275 274 272 271 270 268 266 266 263 264 265 264 264 263 265 264 263 264 269 271 271 269 269 268 269 269 269 269 271 274 272 271 271 272
278 278 278 278 277 277 276 274 273 272 271 271 271 269 267 263 262 264 263 263 261 264 264 264 263 263 262 267 270 271 269 267 268 268 269 272 272 274 275 273 271 269 270
278 278 277 277 277 275 273 273 271 270 270 269 267 266 265 262 262 261 261 259 258 262 259 260 261 261 262 262 269 271 270 269 268 269 270 271 274 275 276 276 273 272 274
278 279 277 276 275 273 272 271 270 269 267 266 265 264 261 262 261 255 256 255 255 255 256 257 259 261 263 266 269 272 273 274 270 269 270 271 275 276 278 278 278 279 278
277 277 276 275 273 270 270 269 268 266 264 262 262 260 261 261 261 256 258 256 253 254 257 259 259 260 263 264 270 272 273 274 272 272 273 276 276 277 276 275 276 274 273
276 273 270 270 270 267 268 266 266 264 259 257 260 261 260 260 260 261 260 255 254 256 258 258 258 260 263 267 267 268 270 273 272 273 272 273 272 272 271 268 269 269 269
273 271 272 271 270 266 264 263 263 261 258 258 261 260 260 259 259 259 258 259 260 260 258 259 262 265 264 266 272 273 271 271 273 271 266 263 262 262 263 264 265 265 266
270 269 268 268 265 264 262 260 259 259 258 259 260 260 260 260 259 258 258 263 267 269 270 272 271 268 271 272 273 273 274 274 271 264 258 258 259 260 261 261 262 263 264
Wind_Speed
4 6 7 8 9 10 10 10 11 10 7 6 4 7 6 7 10 10 14 14 13 14 12 8 9 8 7 5 4 2 2 1 1 2 2 3 4 5 5 3 4 5 5
5 7 8 8 9 9 9 10 10 10 8 4 4 4 4 7 8 8 12 13 14 13 12 11 9 10 7 8 6 5 3 2 3 3 2 4 5 3 2 2 4 6 3
7 5 6 7 7 9 9 9 8 9 9 7 5 5 5 4 6 9 9 12 13 13 12 12 10 9 8 8 8 8 7 4 3 3 1 4 3 4 2 3 3 4 4
4 4 5 5 6 7 7 8 8 9 9 8 11 15 10 9 3 4 5 8 12 12 12 12 11 10 7 9 7 7 4 4 4 3 2 1 1 3 6 2 4 3 5
3 5 5 6 5 6 6 6 7 10 9 9 9 10 12 7 3 4 8 8 9 11 11 11 11 11 8 8 9 8 9 6 4 3 4 2 1 2 3 8 4 4 4
6 2 3 5 5 6 7 6 7 9 9 10 11 12 12 7 8 7 7 5 5 7 10 9 8 8 8 9 8 7 8 7 4 3 4 3 3 4 4 5 10 11 6
7 5 4 4 5 5 5 6 6 8 7 10 10 9 8 8 8 6 5 6 4 4 7 7 7 6 6 6 6 6 6 6 5 6 4 2 2 2 3 5 8 7 4
7 8 7 6 6 5 5 6 6 7 6 7 8 7 7 5 5 6 4 4 4 4 5 5 6 7 6 6 5 3 4 5 4 6 4 4 4 3 3 3 3 9 7
8 8 7 6 6 5 6 6 6 6 6 7 6 6 6 6 6 6 5 4 5 5 6 7 7 6 6 6 6 4 5 5 4 5 4 4 4 3 3 4 3 3 7
8 7 6 7 6 6 5 5 5 6 6 6 6 5 6 6 6 6 7 6 5 5 6 6 5 5 5 5 5 5 5 5 3 4 6 5 4 6 4 4 4 4 6
9 8 7 8 7 6 6 6 6 6 6 6 6 6 5 6 6 5 4 3 2 3 3 4 4 5 5 5 5 5 6 7 8 6 5 8 6 6 6 5 5 6 5
9 8 8 7 7 7 6 7 6 6 6 6 6 6 6 5 4 4 3 3 4 3 4 4 4 4 5 5 5 7 6 6 9 9 9 10 7 8 7 7 10 9 8
8 8 7 9 9 7 7 7 7 7 6 6 6 5 5 4 3 2 1 2 2 3 3 3 3 5 6 7 7 6 7 8 9 10 10 12 11 11 9 9 10 9 9
9 7 5 8 8 8 8 7 7 7 6 6 6 6 5 4 3 2 2 1 1 2 3 3 4 5 7 8 6 9 11 11 11 11 12 12 12 13 12 11 12 11 10
7 8 8 8 7 7 7 7 7 7 7 7 6 6 5 4 4 3 2 2 3 4 4 6 5 6 7 7 11 11 12 12 13 12 12 11 14 24 22 14 14 14 12
7 7 7 8 11 11 10 9 8 8 7 7 7 6 4 4 3 2 3 3 4 4 5 6 6 7 8 17 18 16 12 13 13 14 13 12 14 16 22 24 28 25 17
7 6 7 7 7 10 9 9 9 6 7 6 6 5 5 3 2 2 4 4 4 4 5 5 7 8 8 17 21 22 12 13 13 14 14 14 11 13 13 19 24 22 24
7 6 6 6 7 5 6 4 6 7 7 6 6 5 4 3 2 3 3 3 2 4 6 7 7 8 8 20 21 22 13 12 13 13 14 14 15 14 16 16 16 15 14
8 7 6 5 4 6 6 6 6 7 7 8 6 5 4 3 2 2 0 1 3 4 5 6 6 8 10 20 21 19 12 12 13 13 13 14 15 21 26 18 16 14 14
6 7 6 3 3 4 6 6 6 7 9 6 5 5 3 3 2 1 2 1 2 7 7 7 7 9 11 18 20 18 9 11 10 12 14 19 21 26 27 18 15 16 15
9 5 6 7 7 5 6 7 6 9 5 5 5 4 3 3 1 2 1 1 3 6 5 9 8 9 10 12 20 21 12 10 11 10 10 11 25 29 29 29 17 19 20
7 7 6 7 5 6 7 7 8 6 6 5 5 3 2 1 1 1 2 3 3 5 6 7 8 6 9 14 17 21 22 22 13 13 11 13 28 31 32 27 29 33 29
8 5 7 7 6 6 7 7 5 7 6 5 4 2 0 1 1 2 3 2 2 3 5 6 8 8 7 8 18 22 24 25 17 12 20 32 32 31 22 23 31 28 13
9 5 5 6 7 6 6 4 7 6 6 4 4 2 2 2 2 2 3 2 3 4 5 6 8 8 8 7 9 10 10 15 15 20 13 16 21 25 21 14 14 10 11
6 5 8 8 8 8 6 6 6 7 5 3 3 3 2 3 3 4 4 5 5 7 7 8 8 8 8 8 19 18 13 12 15 17 10 10 10 9 10 10 10 10 11
4 5 5 5 5 6 7 6 6 6 6 4 3 3 3 3 3 3 5 11 15 18 19 20 14 5 16 21 22 24 25 25 26 10 7 9 9 10 11 11 12 11 13
Wind_Direction
11 25 12 7 5 13 19 19 31 12 37 45 45 57 48 50 52 49 39 36 32 32 29 35 34 23 41 31 34 63 49 42 354 344 328 285 253 261 270 289 278 287 292
46 18 20 20 26 5 359 14 31 33 38 60 77 70 83 57 54 44 46 42 39 32 38 33 30 32 35 28 20 24 20 36 19 24 237 343 329 351 344 296 251 253 262
123 64 37 25 21 27 358 13 24 44 45 48 86 92 77 53 43 33 41 36 43 41 40 35 37 33 38 30 20 16 17 4 15 65 21 333 320 318 329 329 330 308 276
114 99 89 68 40 28 5 10 27 45 48 56 74 78 86 89 55 60 50 47 43 44 41 43 41 39 29 33 23 23 15 14 12 343 52 180 165 316 320 338 318 331 295
132 120 95 80 51 52 36 18 35 49 46 57 74 87 86 82 65 53 61 44 41 40 37 41 39 39 29 24 32 29 34 25 21 12 342 336 250 238 268 305 317 302 273
154 139 105 94 70 50 53 41 57 58 51 66 68 79 84 80 75 56 55 31 30 35 33 31 34 39 34 20 7 21 33 24 39 20 15 12 339 332 311 297 307 299 292
160 173 150 126 106 93 81 75 66 70 64 79 77 80 88 89 89 77 67 59 41 26 26 24 28 29 17 28 359 14 34 20 22 6 348 341 314 291 285 294 295 288 309
168 187 185 165 156 145 127 117 108 101 83 83 81 82 85 87 80 75 71 64 60 43 21 27 29 23 16 10 5 353 20 7 7 359 345 316 308 309 294 279 284 304 291
186 192 191 183 174 168 168 155 130 110 102 99 95 84 85 85 84 77 71 61 44 26 19 21 16 6 5 7 355 353 352 347 341 328 323 307 298 282 273 274 260 251 303
194 200 193 191 192 187 173 146 139 137 133 119 108 95 87 84 79 65 56 47 34 21 13 7 4 354 353 345 348 342 325 333 328 320 317 305 296 302 286 276 269 247 258
198 199 196 200 189 178 169 165 156 149 140 125 113 103 91 86 85 84 82 67 52 20 9 359 350 348 342 338 332 324 318 327 319 313 293 296 286 295 295 294 279 275 253
197 198 202 188 187 186 180 182 172 165 165 152 140 138 134 128 108 91 66 39 24 6 354 346 331 325 325 318 314 320 313 300 307 307 302 300 302 295 287 281 283 279 272
201 206 196 197 194 192 190 185 185 188 177 168 159 163 162 141 127 120 68 19 351 344 346 347 335 336 333 329 319 304 308 306 300 301 299 302 305 298 293 286 284 281 278
204 207 193 204 196 196 193 190 198 194 182 180 179 177 177 176 165 135 115 73 353 12 6 4 348 342 335 324 326 329 320 310 304 302 298 296 292 291 292 287 283 282 282
218 211 213 208 199 191 197 201 203 191 185 181 181 191 179 173 151 133 123 57 43 22 1 349 348 342 334 335 332 322 314 310 307 306 304 299 298 299 296 294 290 286 282
237 226 216 196 200 198 202 200 200 201 175 187 190 174 168 164 144 109 46 38 20 6 354 348 338 332 329 326 323 323 314 309 305 304 304 300 293 293 298 298 297 292 292
230 237 226 209 200 197 200 202 207 170 185 177 164 162 158 154 101 64 41 18 356 345 341 335 330 321 318 321 322 319 310 304 301 300 300 299 297 298 292 290 289 290 286
211 219 220 214 214 200 202 196 170 174 173 171 165 165 160 145 121 62 43 344 338 339 328 323 314 305 310 318 319 315 310 301 294 292 293 293 293 288 287 285 279 275 270
206 207 199 188 181 203 204 182 171 166 165 180 175 170 161 144 76 60 55 325 335 328 307 303 306 301 302 313 313 315 304 297 293 291 285 282 285 286 287 282 279 277 275
196 191 184 184 212 226 166 161 182 175 193 167 159 150 148 132 97 58 11 64 331 304 307 302 302 294 291 302 306 310 295 293 292 284 283 281 286 289 291 287 283 279 273
199 189 180 209 224 173 152 187 167 203 146 134 133 142 124 95 55 37 22 329 294 300 301 295 289 280 278 283 302 305 300 294 286 284 288 284 288 292 290 286 278 271 272
207 207 208 224 209 174 162 181 196 142 138 141 144 138 101 15 42 62 292 302 295 294 291 293 295 277 274 279 296 303 303 301 301 293 288 285 285 285 286 289 290 293 296
223 208 208 223 198 177 174 186 173 145 145 141 154 170 209 278 264 255 282 288 242 263 285 288 294 294 286 277 285 303 300 300 301 292 289 298 301 303 310 306 300 303 294
233 207 167 211 222 183 173 162 146 139 138 157 189 203 235 291 257 272 262 217 240 262 270 274 274 281 279 299 300 287 285 296 303 292 291 316 323 312 303 308 301 294 294
218 185 201 212 218 161 157 146 142 138 154 163 204 225 229 238 272 259 240 252 246 240 249 247 249 289 303 298 305 317 313 308 314 332 330 329 320 314 310 306 304 303 299
191 202 205 193 172 158 152 156 151 154 159 185 201 214 221 227 253 264 283 279 283 285 287 291 292 288 306 308 318 316 325 335 337 335 331 316 314 312 312 310 308 304 302